Regional Weather Roundup
Issued by NWS

Home | Current Version | Previous Version | Text Only | Print | Product List | Glossary On
Versions: 1 2 3 4 5 6 7 8 9 10 11 12 13 14 15 16 17 18 19 20 21 22 23 24 25 26 27 28 29 30 31 32 33 34 35 36 37 38 39 40 41 42 43 44 45 46 47 48 49 50
000
ASUS43 KDTX 271710
RWRMI
MICHIGAN HOURLY REGIONAL WEATHER ROUNDUP
NATIONAL WEATHER SERVICE DETROIT/PONTIAC MI
100 PM EDT FRI MAY 27 2016

NOTE: "FAIR" INDICATES FEW OR NO CLOUDS BELOW 12,000 FEET WITH NO
SIGNIFICANT WEATHER AND/OR OBSTRUCTION TO VISIBILITY.

MIZ047>049-052>055-059>063-066>070-074>076-081>083-271800-
SOUTHEAST LOWER MICHIGAN

CITY           SKY/WX    TMP DP  RH WIND       PRES   REMARKS
ADRIAN         PTSUNNY   79  62  56 S12       30.00S
ALMA           MOSUNNY   79  67  67 S8        29.97S
ANN ARBOR      CLOUDY    79  64  60 SW9       30.00R
BAD AXE        MOSUNNY   79  65  62 S3        30.00R
CARO           SUNNY     82  61  48 CALM      29.98S
DETROIT CITY   SUNNY     82  62  50 S8        30.00R
DETROIT        CLOUDY    82  65  56 S6        30.01R
FLINT          CLOUDY    84  61  45 S7        29.98S
GROSSE ILE     MOSUNNY   75  64  69 S8        30.00S
HILLSDALE      CLOUDY    76  61  59 S5        30.01S
HOWELL         CLOUDY    80  64  58 S9        30.00R

CITY           SKY/WX    TMP DP  RH WIND       PRES   REMARKS
JACKSON        CLOUDY    78  62  57 S9        29.99S
LAMBERTVILLE   PTSUNNY   82  63  53 NW3       30.00S
LANSING        MOSUNNY   82  66  58 SE9       29.98R
LAPEER         FAIR      84  57  40 W8        29.99S
MASON          PTSUNNY   82  65  57 S8G16     29.99R
MONROE         CLOUDY    80  65  60 S5        30.00S
MT. CLEMENS    PTSUNNY   81  68  65 SE12      29.99R
PONTIAC        CLOUDY    81  64  56 S8        29.99R
PORT HOPE        N/A     55  55 100 E5        30.00R
PORT HURON     CLOUDY    81  64  57 S3        29.99R
TRI CITIES     PTSUNNY   84  62  47 SE7       29.98S
MIDLAND        PTSUNNY   82  64  54 SE7       29.97R
TROY           CLOUDY    83  62  48 SW5       30.01S
SAGINAW HB     MOSUNNY   82  59  44 SE8       29.97S
$$
MIZ043>046-050>051-056>058-064>065-071>073-077>080-271800-
SOUTHWEST LOWER MICHIGAN

CITY           SKY/WX    TMP DP  RH WIND       PRES   REMARKS
BATTLE CREEK   PTSUNNY   79  65  62 S13       29.98S
BENTON HARBOR  PTSUNNY   75  64  68 S10       29.95R
BIG RAPIDS     CLOUDY    79  70  73 S12       29.94S
COLDWATER      CLOUDY    76  65  67 S6        29.99S
FREMONT        FAIR      81  70  68 S7        29.93F
HOLLAND        PTSUNNY   79  67  66 W9        29.94S
GRAND RAPIDS   PTSUNNY   84  64  50 S12       29.95S
IONIA          FAIR      82  63  52 S8        29.95S
KALAMAZOO      CLOUDY    79  65  62 S8        29.97S
LUDINGTON      PTSUNNY   73  65  76 SW12      29.93S
MARSHALL       CLOUDY    79  65  61 S8        29.98S
MOUNT PLEASANT CLOUDY    81  66  60 SE9       29.96S
MUSKEGON       CLOUDY    77  63  61 SW17G23   29.95R
SOUTH HAVEN    CLOUDY    76  66  69 S6        29.94S
$$
MIZ016>042-271800-
NORTHERN LOWER MICHIGAN

CITY           SKY/WX    TMP DP  RH WIND       PRES   REMARKS
ALPENA         PTSUNNY   78  60  53 E10       29.98R
BEAVER ISLAND  CLOUDY    72  61  69 E5        29.94F
BELLAIRE       CLOUDY    83  57  40 S3        29.92F
CADILLAC       CLOUDY    79  62  55 S12       29.96S
CHARLEVOIX     CLOUDY    69  61  76 N6        29.97S
FRANKFORT      CLOUDY    81  65  57 SE7       29.90S
GAYLORD        CLOUDY    79  57  46 S7        29.97S
GRAYLING       CLOUDY    81  58  44 S9        29.97F
HARBOR SPRINGS MOSUNNY   79  59  49 CALM      29.93F
HOUGHTON LAKE  PTSUNNY   81  61  50 S9        29.97F
MANISTEE       CLOUDY    81  64  57 SE6       29.92S
OSCODA         CLOUDY    68  57  69 SE5       30.00R
PELLSTON       PTSUNNY   80  59  48 SE7       29.94F
ROGERS CITY    CLOUDY    71  62  72 NE7       29.98S
TRAVERSE CITY  CLOUDY    78  62  57 N5        29.90F
$$
MIZ007>008-015-271800-
EASTERN UPPER MICHIGAN

CITY           SKY/WX    TMP DP  RH WIND       PRES   REMARKS
KINROSS          N/A     75  64  69 S5        29.96S
MACKINAC ISLAN CLOUDY    65  57  76 E5        29.96F
NEWBERRY       CLOUDY    74  63  66 SW8       29.94S
S. S. MARIE    SUNNY     71  63  75 SE6       29.96S
MUNISING         N/A     54  50  86 N7        29.92S
$$
MIZ004>006-011>014-085-271800-
CENTRAL UPPER MICHIGAN

CITY           SKY/WX    TMP DP  RH WIND       PRES   REMARKS
MANISTIQUE     CLOUDY    59  58  96 SE3       29.94S
ESCANABA       CLOUDY    63  55  77 S5        29.92R
MENOMINEE      CLOUDY    63  56  78 E7        29.91R
SAWYER-GWINN   SUNNY     72  61  68 S5        29.93R
$$
MIZ001>003-009>011-084-271800-
WESTERN UPPER MICHIGAN

CITY           SKY/WX    TMP DP  RH WIND       PRES   REMARKS
IRON MOUNTAIN  CLOUDY    72  60  66 E5        29.90R
HOUGHTON       CLOUDY    65  59  81 SE5       29.91S
COPPER HARBOR    N/A     45  44  97 CALM      29.93S
IRONWOOD       CLOUDY    66  61  82 E6        29.86F
$$

ABBREVIATIONS USED IN REMARKS
   TC - TEMPERATURE IN CELSIUS
  WCI - WIND CHILL INDEX
   HX - HEAT INDEX
  VSB - VISIBILITY





USA.gov is the U.S. government's official web portal to all federal, state and local government web resources and services.